Date String (YYYY-MM-DD hh:mm:ss) UTC,Instrument flags,absolute air pressure of the measurement (hPa),sample flow rate (lpm),inlet stack bypass flow (lpm),air temperature of the measurement (°C),ambient temperature measured by the external sensor (°C),aerosol sample conditioner tube jacket temperature (°C),OPC LED temperature (°C),internal box temperature (°C),relative humidity of the measurement (%),span deviation,mass concentration of particles derived from Lorenz-Mie calculation of OPC scattering (μg/m³),mass concentration of particles derived from Lorenz-Mie calculation of OPC scattering (μg/m³),mass concentration of particles derived from Lorenz-Mie calculation of OPC scattering (μg/m³)
DateTimeUTC,F1_M11,P_M11,Q1_M11,Q2_M11,T1_M11,T2_M11,T3_M11,T4_M11,T5_M11,U1_M11,ZSPAN_M11,X2_M11,X0_M11,X1_M11
2023-08-04 15:00:00,SystemResetWarning,0833.8,5.01,000.00,032.0,028.0,000.0,039.2,031.8,33.1,0000.0,0004.39,0009.61,0003.80
2023-08-04 15:01:00,SystemResetWarning,0833.8,5.01,000.00,032.1,028.1,000.0,039.3,031.8,32.8,0000.0,0004.43,0009.14,0003.83
2023-08-04 15:02:00,SystemResetWarning,0833.8,4.99,000.00,032.1,028.2,000.0,039.4,031.8,32.8,0000.0,0004.46,0008.87,0003.85
2023-08-04 15:03:00,SystemResetWarning,0833.7,4.99,000.00,032.1,028.3,000.0,039.5,031.8,33.0,0000.0,0004.45,0008.61,0003.86
2023-08-04 15:04:00,SystemResetWarning,0833.8,5.00,000.00,032.2,028.1,000.0,039.5,031.9,33.4,0000.0,0004.45,0008.09,0003.89
2023-08-04 15:05:00,SystemResetWarning,0833.8,5.00,000.00,032.2,026.6,000.0,039.5,031.7,33.6,0000.0,0004.46,0008.13,0003.91
2023-08-04 15:06:00,SystemResetWarning,0833.7,5.00,000.00,032.1,025.6,000.0,039.4,031.6,33.1,0000.0,0004.45,0008.10,0003.92
2023-08-04 15:07:00,SystemResetWarning,0833.8,5.02,000.00,032.0,025.5,000.0,039.4,031.3,33.1,0000.0,0004.45,0008.09,0003.94
2023-08-04 15:08:00,SystemResetWarning,0833.8,4.99,000.00,031.8,025.8,000.0,039.5,031.2,33.4,0000.0,0004.46,0008.15,0003.94
2023-08-04 15:09:00,SystemResetWarning,0833.8,5.00,000.00,031.7,026.2,000.0,039.5,031.3,33.9,0000.0,0004.42,0008.56,0003.94
2023-08-04 15:10:00,SystemResetWarning,0833.7,5.00,000.00,031.6,026.6,000.0,039.6,031.3,33.4,0000.0,0004.40,0008.53,0003.94
2023-08-04 15:11:00,SystemResetWarning,0833.8,5.00,000.00,031.6,026.9,000.0,039.6,031.4,33.6,0000.0,0004.40,0008.83,0003.94
2023-08-04 15:12:00,SystemResetWarning,0833.8,4.99,000.00,031.5,027.3,000.0,039.6,031.4,34.3,0000.0,0004.41,0009.43,0003.95
2023-08-04 15:13:00,SystemResetWarning,0833.8,4.99,000.00,031.5,027.5,000.0,039.6,031.5,33.6,0000.0,0004.39,0010.03,0003.95
2023-08-04 15:14:00,SystemResetWarning,0833.8,4.99,000.00,031.4,027.7,000.0,039.6,031.5,34.1,0000.0,0004.40,0010.38,0003.96
2023-08-04 15:15:00,SystemResetWarning,0833.8,5.01,000.00,031.4,027.9,000.0,039.6,031.6,34.4,0000.0,0004.44,0010.53,0003.98
2023-08-04 15:16:00,SystemResetWarning,0833.7,5.01,000.00,031.4,028.1,000.0,039.5,031.6,33.2,0000.0,0004.47,0010.61,0004.00
2023-08-04 15:17:00,SystemResetWarning,0833.7,5.00,000.00,031.4,028.2,000.0,039.5,031.7,32.9,0000.0,0004.48,0010.59,0004.01
2023-08-04 15:18:00,SystemResetWarning,0833.7,4.99,000.00,031.3,028.2,000.0,039.5,031.7,33.2,0000.0,0004.50,0010.60,0004.02
2023-08-04 15:19:00,SystemResetWarning,0833.7,4.98,000.00,031.3,027.2,000.0,039.4,031.6,34.0,0000.0,0004.52,0010.65,0004.02
2023-08-04 15:20:00,SystemResetWarning,0833.7,5.02,000.00,031.3,025.8,000.0,039.2,031.3,34.2,0000.0,0004.58,0010.32,0004.04
2023-08-04 15:21:00,SystemResetWarning,0833.7,5.01,000.00,031.2,025.4,000.0,039.1,031.2,33.9,0000.0,0004.63,0010.47,0004.05
2023-08-04 15:22:00,SystemResetWarning,0833.6,4.99,000.00,031.0,025.6,000.0,039.1,031.0,33.8,0000.0,0004.68,0010.32,0004.06
2023-08-04 15:23:00,SystemResetWarning,0833.6,5.01,000.00,030.9,026.0,000.0,039.1,031.0,34.3,0000.0,0004.71,0009.69,0004.07
2023-08-04 15:24:00,SystemResetWarning,0833.5,4.97,000.00,030.8,026.4,000.0,039.1,031.1,35.1,0000.0,0004.75,0009.29,0004.09
2023-08-04 15:25:00,SystemResetWarning,0833.5,5.04,000.00,030.8,026.7,000.0,039.1,031.2,35.0,0000.0,0004.80,0008.79,0004.11
2023-08-04 15:26:00,SystemResetWarning,0833.6,4.97,000.00,031.0,027.1,000.0,039.1,031.3,33.9,0000.0,0004.82,0008.76,0004.10
2023-08-04 15:27:00,SystemResetWarning,0833.6,5.02,000.00,031.0,027.3,000.0,039.1,031.4,33.0,0000.0,0004.86,0009.01,0004.10
2023-08-04 15:28:00,SystemResetWarning,0833.6,5.01,000.00,031.1,027.6,000.0,039.1,031.4,32.2,0000.0,0004.91,0009.34,0004.11
2023-08-04 15:29:00,SystemResetWarning,0833.6,5.00,000.00,031.1,027.8,000.0,039.1,031.4,32.2,0000.0,0004.95,0009.62,0004.13
2023-08-04 15:30:00,SystemResetWarning,0833.6,4.99,000.00,031.1,027.9,000.0,039.1,031.5,32.7,0000.0,0004.95,0009.78,0004.15
2023-08-04 15:31:00,SystemResetWarning,0833.6,5.00,000.00,031.1,028.1,000.0,039.1,031.5,33.0,0000.0,0004.93,0009.77,0004.17
2023-08-04 15:32:00,SystemResetWarning,0833.7,5.00,000.00,031.1,028.2,000.0,039.2,031.6,32.9,0000.0,0004.92,0009.33,0004.18
2023-08-04 15:33:00,SystemResetWarning,0833.7,4.99,000.00,031.1,027.8,000.0,039.1,031.6,31.8,0000.0,0004.92,0009.61,0004.20
2023-08-04 15:34:00,SystemResetWarning,0833.6,5.01,000.00,031.1,026.2,000.0,039.0,031.3,32.8,0000.0,0004.95,0010.11,0004.22
2023-08-04 15:35:00,SystemResetWarning,0833.6,5.01,000.00,031.0,025.4,000.0,038.9,031.2,33.7,0000.0,0004.98,0010.35,0004.24
2023-08-04 15:36:00,SystemResetWarning,0833.5,5.01,000.00,030.9,025.5,000.0,038.9,030.9,32.5,0000.0,0005.01,0010.46,0004.24
2023-08-04 15:37:00,SystemResetWarning,0833.6,5.00,000.00,030.7,025.8,000.0,038.9,030.9,32.5,0000.0,0004.98,0010.38,0004.26
2023-08-04 15:38:00,SystemResetWarning,0833.6,5.00,000.00,030.6,026.2,000.0,038.9,030.9,32.9,0000.0,0004.98,0010.37,0004.27
2023-08-04 15:39:00,SystemResetWarning,0833.5,4.99,000.00,030.6,026.6,000.0,038.9,031.0,32.6,0000.0,0004.93,0009.87,0004.27
2023-08-04 15:40:00,SystemResetWarning,0833.5,5.00,000.00,030.6,026.9,000.0,038.9,031.1,32.8,0000.0,0004.91,0009.92,0004.28
2023-08-04 15:41:00,SystemResetWarning,0833.6,5.01,000.00,030.5,027.2,000.0,038.9,031.2,33.0,0000.0,0004.94,0009.68,0004.29
2023-08-04 15:42:00,SystemResetWarning,0833.6,5.00,000.00,030.5,027.5,000.0,038.9,031.2,33.4,0000.0,0004.99,0009.80,0004.30
2023-08-04 15:43:00,SystemResetWarning,0833.6,5.00,000.00,030.5,027.7,000.0,038.9,031.3,32.3,0000.0,0005.01,0009.74,0004.30
2023-08-04 15:44:00,SystemResetWarning,0833.6,5.01,000.00,030.5,027.9,000.0,038.8,031.3,32.0,0000.0,0005.04,0009.75,0004.31
2023-08-04 15:45:00,SystemResetWarning,0833.6,5.00,000.00,030.5,028.0,000.0,038.8,031.4,31.9,0000.0,0005.02,0009.15,0004.30
2023-08-04 15:46:00,SystemResetWarning,0833.6,4.99,000.00,030.5,028.0,000.0,038.8,031.4,30.5,0000.0,0005.00,0008.99,0004.29
2023-08-04 15:47:00,SystemResetWarning,0833.5,4.99,000.00,030.5,026.7,000.0,038.7,031.2,30.0,0000.0,0004.98,0009.20,0004.28
2023-08-04 15:48:00,SystemResetWarning,0833.5,5.01,000.00,030.4,025.6,000.0,038.5,031.0,31.4,0000.0,0004.97,0009.32,0004.26
2023-08-04 15:49:00,SystemResetWarning,0833.6,5.01,000.00,030.3,025.4,000.0,038.5,030.9,31.2,0000.0,0004.93,0009.28,0004.23
2023-08-04 15:50:00,SystemResetWarning,0833.6,5.01,000.00,030.2,025.7,000.0,038.5,030.7,31.3,0000.0,0004.97,0009.38,0004.21
2023-08-04 15:51:00,SystemResetWarning,0833.5,4.99,000.00,030.1,026.1,000.0,038.5,030.8,31.8,0000.0,0004.98,0009.34,0004.20
2023-08-04 15:52:00,SystemResetWarning,0833.5,4.99,000.00,030.1,026.5,000.0,038.5,030.9,32.7,0000.0,0004.97,0009.48,0004.18
2023-08-04 15:53:00,SystemResetWarning,0833.5,5.00,000.00,030.0,026.8,000.0,038.5,030.9,33.3,0000.0,0004.94,0009.38,0004.17
2023-08-04 15:54:00,SystemResetWarning,0833.5,5.01,000.00,030.0,027.1,000.0,038.5,031.0,33.4,0000.0,0004.92,0009.36,0004.16
2023-08-04 15:55:00,SystemResetWarning,0833.5,5.01,000.00,030.0,027.4,000.0,038.5,031.1,33.0,0000.0,0004.87,0009.24,0004.15
2023-08-04 15:56:00,SystemResetWarning,0833.4,4.99,000.00,030.0,027.6,000.0,038.5,031.1,33.7,0000.0,0004.82,0009.50,0004.12
2023-08-04 15:57:00,SystemResetWarning,0833.4,4.99,000.00,030.0,027.8,000.0,038.4,031.2,34.0,0000.0,0004.77,0010.61,0004.11
2023-08-04 15:58:00,SystemResetWarning,0833.4,4.98,000.00,030.0,028.0,000.0,038.4,031.2,34.9,0000.0,0004.72,0010.38,0004.11
2023-08-04 15:59:00,SystemResetWarning,0833.4,5.04,000.00,030.2,027.8,000.0,038.4,031.3,34.9,0000.0,0004.67,0010.12,0004.10
